| time (UTC) | temp F | wind direction | speed knots | gust knots | rain 1hr in | rain 24hr in | rain mn in | humidity % | barometer mb |
| 20260508075056 | 66 | 90 | 0.0 | 3.5 | 0.00 | 0.00 | 0.00 | 73 | 1002.9 |
| 20260508074556 | 66 | 45 | 1.7 | 3.5 | 0.00 | 0.00 | 0.00 | 73 | 1002.9 |
| 20260508074056 | 66 | 67 | 0.0 | 4.3 | 0.00 | 0.00 | 0.00 | 73 | 1002.8 |
| 20260508073556 | 67 | 67 | 0.0 | 0.0 | 0.00 | 0.00 | 0.00 | 74 | 1002.8 |
| 20260508073056 | 67 | 112 | 0.0 | 4.3 | 0.00 | 0.00 | 0.00 | 74 | 1002.7 |
| 20260508072556 | 68 | 67 | 1.7 | 3.5 | 0.00 | 0.00 | 0.00 | 76 | 1002.6 |
| 20260508072056 | 68 | 112 | 3.5 | 4.3 | 0.00 | 0.00 | 0.00 | 77 | 1002.7 |
| 20260508071556 | 68 | 67 | 3.5 | 3.5 | 0.00 | 0.00 | 0.00 | 79 | 1002.6 |
| 20260508071056 | 68 | 45 | 3.5 | 4.3 | 0.00 | 0.00 | 0.00 | 81 | 1002.7 |
| 20260508070556 | 67 | 112 | 3.5 | 4.3 | 0.00 | 0.00 | 0.00 | 81 | 1002.7 |
| 20260508070056 | 66 | 90 | 2.6 | 4.3 | 0.00 | 0.00 | 0.00 | 83 | 1002.7 |
| 20260508065556 | 66 | 112 | 2.6 | 4.3 | 0.00 | 0.00 | 0.00 | 83 | 1002.6 |
| 20260508065056 | 65 | 112 | 0.9 | 4.3 | 0.00 | 0.00 | 0.00 | 84 | 1002.6 |
| 20260508064556 | 65 | 112 | 4.3 | 4.3 | 0.00 | 0.00 | 0.00 | 85 | 1002.6 |
| 20260508064056 | 65 | 135 | 1.7 | 2.6 | 0.00 | 0.00 | 0.00 | 85 | 1002.6 |
| 20260508063556 | 64 | 135 | 0.0 | 0.0 | 0.00 | 0.00 | 0.00 | 86 | 1002.6 |
| 20260508063056 | 64 | 135 | 0.0 | 4.3 | 0.00 | 0.00 | 0.00 | 87 | 1002.6 |
| 20260508062556 | 64 | 135 | 0.0 | 0.0 | 0.00 | 0.00 | 0.00 | 87 | 1002.6 |
| 20260508062056 | 63 | 135 | 0.0 | 3.5 | 0.00 | 0.00 | 0.00 | 87 | 1002.6 |
| 20260508061556 | 62 | 135 | 0.0 | 3.5 | 0.00 | 0.00 | 0.00 | 87 | 1002.8 |
| 20260508061056 | 62 | 112 | 1.7 | 3.5 | 0.00 | 0.00 | 0.00 | 88 | 1002.8 |
| 20260508060556 | 62 | 112 | 0.0 | 3.5 | 0.00 | 0.00 | 0.00 | 88 | 1002.8 |
| 20260508060056 | 61 | 112 | 3.5 | 3.5 | 0.00 | 0.00 | 0.00 | 88 | 1002.7 |
| 20260508055556 | 61 | 112 | 0.9 | 3.5 | 0.00 | 0.00 | 0.00 | 88 | 1002.7 |
| 20260508055056 | 61 | 112 | 1.7 | 2.6 | 0.00 | 0.00 | 0.00 | 88 | 1002.7 |
| 20260508054556 | 61 | 112 | 0.0 | 3.5 | 0.00 | 0.00 | 0.00 | 88 | 1002.7 |
| 20260508054056 | 61 | 67 | 2.6 | 2.6 | 0.00 | 0.00 | 0.00 | 88 | 1002.6 |
| 20260508053556 | 61 | 135 | 0.0 | 0.0 | 0.00 | 0.00 | 0.00 | 89 | 1002.7 |
| 20260508053056 | 60 | 135 | 0.0 | 0.0 | 0.00 | 0.00 | 0.00 | 89 | 1002.7 |
| 20260508052556 | 60 | 135 | 0.0 | 0.0 | 0.00 | 0.00 | 0.00 | 89 | 1002.7 |
| 20260508052056 | 60 | 135 | 0.0 | 0.0 | 0.00 | 0.00 | 0.00 | 90 | 1002.5 |
| 20260508051556 | 59 | 135 | 0.0 | 0.0 | 0.00 | 0.00 | 0.00 | 90 | 1002.6 |
| 20260508051056 | 59 | 135 | 0.0 | 0.0 | 0.00 | 0.00 | 0.00 | 90 | 1002.5 |
| 20260508050556 | 58 | 135 | 0.0 | 0.0 | 0.00 | 0.00 | 0.00 | 89 | 1002.7 |
| 20260508050056 | 58 | 135 | 0.0 | 0.0 | 0.00 | 0.00 | 0.00 | 89 | 1002.6 |
| 20260508045556 | 57 | 135 | 0.0 | 0.0 | 0.00 | 0.00 | 0.00 | 89 | 1002.6 |
| 20260508045056 | 57 | 135 | 0.0 | 0.0 | 0.00 | 0.00 | 0.00 | 89 | 1002.6 |
| 20260508044556 | 57 | 135 | 0.0 | 2.6 | 0.00 | 0.00 | 0.00 | 89 | 1002.6 |
| 20260508044056 | 57 | 135 | 2.6 | 3.5 | 0.00 | 0.00 | 0.00 | 89 | 1002.3 |
| 20260508043556 | 57 | 135 | 0.0 | 0.0 | 0.00 | 0.00 | 0.00 | 89 | 1002.5 |
| 20260508043056 | 57 | 135 | 0.0 | 0.0 | 0.00 | 0.00 | 0.00 | 88 | 1002.4 |
| 20260508042556 | 56 | 135 | 0.0 | 0.0 | 0.00 | 0.00 | 0.00 | 88 | 1002.4 |
| 20260508042056 | 56 | 135 | 0.0 | 0.0 | 0.00 | 0.00 | 0.00 | 88 | 1002.4 |
| 20260508041556 | 56 | 135 | 0.0 | 0.0 | 0.00 | 0.00 | 0.00 | 87 | 1002.4 |
| 20260508041056 | 56 | 135 | 0.0 | 0.0 | 0.00 | 0.00 | 0.00 | 87 | 1002.3 |
| 20260508040556 | 56 | 135 | 0.0 | 0.0 | 0.00 | 0.00 | 0.00 | 87 | 1002.4 |
| 20260508040056 | 56 | 135 | 0.0 | 0.0 | 0.00 | 0.00 | 0.00 | 86 | 1002.4 |
| 20260508035556 | 56 | 135 | 0.0 | 0.0 | 0.00 | 0.00 | 0.00 | 85 | 1002.3 |
| 20260508035056 | 56 | 135 | 0.0 | 0.0 | 0.00 | 0.00 | 0.00 | 85 | 1002.2 |
| 20260508034556 | 56 | 135 | 0.0 | 0.0 | 0.00 | 0.00 | 0.00 | 85 | 1002.2 |
| 20260508034056 | 56 | 135 | 0.0 | 0.0 | 0.00 | 0.00 | 0.00 | 85 | 1002.2 |
| 20260508033556 | 56 | 135 | 0.0 | 0.0 | 0.00 | 0.00 | 0.00 | 85 | 1002.1 |
| 20260508033056 | 56 | 135 | 0.0 | 0.0 | 0.00 | 0.00 | 0.00 | 84 | 1002.2 |
| 20260508032556 | 56 | 135 | 0.0 | 0.0 | 0.00 | 0.00 | 0.00 | 84 | 1002.0 |
| 20260508032056 | 56 | 135 | 0.0 | 0.0 | 0.00 | 0.00 | 0.00 | 84 | 1002.1 |
| 20260508031556 | 56 | 135 | 0.0 | 0.0 | 0.00 | 0.00 | 0.00 | 84 | 1002.2 |
| 20260508031056 | 56 | 135 | 0.0 | 0.0 | 0.00 | 0.00 | 0.00 | 84 | 1002.0 |
| 20260508030556 | 56 | 135 | 0.0 | 0.0 | 0.00 | 0.00 | 0.00 | 84 | 1002.1 |
| 20260508030056 | 56 | 135 | 0.0 | 0.0 | 0.00 | 0.00 | 0.00 | 84 | 1002.1 |
| 20260508025556 | 56 | 135 | 0.0 | 0.0 | 0.00 | 0.00 | 0.00 | 84 | 1002.0 |
| 20260508025056 | 56 | 135 | 0.0 | 0.0 | 0.00 | 0.00 | 0.00 | 83 | 1002.0 |
| 20260508024556 | 56 | 135 | 0.0 | 0.0 | 0.00 | 0.00 | 0.00 | 83 | 1002.0 |
| 20260508024056 | 56 | 135 | 0.0 | 0.0 | 0.00 | 0.00 | 0.00 | 83 | 1001.9 |
| 20260508023556 | 56 | 135 | 0.0 | 0.0 | 0.00 | 0.00 | 0.00 | 83 | 1002.0 |
| 20260508023056 | 56 | 135 | 0.0 | 0.0 | 0.00 | 0.00 | 0.00 | 82 | 1002.1 |
| 20260508022556 | 56 | 135 | 0.0 | 0.0 | 0.00 | 0.00 | 0.00 | 82 | 1002.0 |
| 20260508022056 | 56 | 135 | 0.0 | 0.0 | 0.00 | 0.00 | 0.00 | 82 | 1002.0 |
| 20260508021556 | 56 | 135 | 0.0 | 0.0 | 0.00 | 0.00 | 0.00 | 82 | 1001.9 |
| 20260508021056 | 56 | 135 | 0.0 | 0.0 | 0.00 | 0.00 | 0.00 | 82 | 1001.9 |
| 20260508020556 | 56 | 135 | 0.0 | 0.0 | 0.00 | 0.00 | 0.00 | 82 | 1001.9 |
| 20260508020056 | 56 | 135 | 0.0 | 0.0 | 0.00 | 0.00 | 0.00 | 82 | 1001.9 |
| 20260508015556 | 56 | 135 | 0.0 | 0.0 | 0.00 | 0.00 | 0.00 | 81 | 1001.9 |
| 20260508015056 | 56 | 135 | 0.0 | 0.0 | 0.00 | 0.00 | 0.00 | 81 | 1001.9 |
| 20260508014556 | 56 | 135 | 0.0 | 0.0 | 0.00 | 0.00 | 0.00 | 81 | 1001.9 |
| 20260508014056 | 56 | 135 | 0.0 | 0.0 | 0.00 | 0.00 | 0.00 | 81 | 1001.9 |
| 20260508013556 | 56 | 135 | 0.0 | 0.0 | 0.00 | 0.00 | 0.00 | 81 | 1001.8 |
| 20260508013056 | 57 | 135 | 0.0 | 0.0 | 0.00 | 0.00 | 0.00 | 81 | 1001.9 |
| 20260508012556 | 57 | 135 | 0.0 | 0.0 | 0.00 | 0.00 | 0.00 | 81 | 1001.9 |
| 20260508012056 | 57 | 135 | 0.0 | 0.0 | 0.00 | 0.00 | 0.00 | 81 | 1001.8 |
| 20260508011556 | 57 | 135 | 0.0 | 0.0 | 0.00 | 0.00 | 0.00 | 81 | 1001.7 |
| 20260508011056 | -2 | 135 | 0.0 | 3.5 | 0.00 | 0.00 | 0.00 | 81 | 1001.8 |
| 20260508010556 | 57 | 135 | 0.0 | 0.0 | 0.00 | 0.00 | 0.00 | 80 | 1001.7 |
| 20260508010056 | 57 | 112 | 0.0 | 0.0 | 0.00 | 0.00 | 0.00 | 79 | 1001.3 |
| 20260508005556 | 56 | 112 | 0.0 | 0.0 | 0.00 | 0.00 | 0.00 | 79 | 1001.5 |
| 20260508005056 | 56 | 112 | 0.0 | 0.0 | 0.00 | 0.00 | 0.00 | 78 | 1001.7 |
| 20260508004556 | 56 | 112 | 0.0 | 0.0 | 0.00 | 0.00 | 0.00 | 78 | 1001.6 |
| 20260508004056 | 56 | 112 | 0.0 | 0.0 | 0.00 | 0.00 | 0.00 | 78 | 1001.6 |
| 20260508003556 | 56 | 112 | 0.0 | 0.0 | 0.00 | 0.00 | 0.00 | 79 | 1001.8 |
| 20260508003056 | 56 | 112 | 0.0 | 0.0 | 0.00 | 0.00 | 0.00 | 79 | 1001.6 |
| 20260508002556 | 56 | 112 | 0.0 | 0.0 | 0.00 | 0.00 | 0.00 | 79 | 1001.5 |
| 20260508002056 | 56 | 112 | 0.0 | 0.0 | 0.00 | 0.00 | 0.00 | 79 | 1001.6 |
| 20260508001556 | 56 | 112 | 0.0 | 0.0 | 0.00 | 0.00 | 0.00 | 78 | 1001.5 |
| 20260508001056 | 56 | 112 | 0.0 | 0.0 | 0.00 | 0.00 | 0.00 | 78 | 1001.6 |
| 20260508000556 | 56 | 112 | 0.0 | 0.0 | 0.00 | 0.00 | 0.00 | 78 | 1001.7 |
| 20260508000056 | 55 | 112 | 0.0 | 0.0 | 0.00 | 0.00 | 0.00 | 77 | 1001.5 |
| 20260507235556 | 55 | 112 | 0.0 | 0.0 | 0.00 | 0.00 | 0.00 | 76 | 1001.4 |
| 20260507235056 | 55 | 112 | 0.0 | 0.0 | 0.00 | 0.00 | 0.00 | 76 | 1001.5 |
| 20260507234556 | 55 | 112 | 0.0 | 0.0 | 0.00 | 0.00 | 0.00 | 76 | 1001.6 |
| 20260507234056 | 55 | 112 | 0.0 | 0.0 | 0.00 | 0.00 | 0.00 | 76 | 1001.4 |
| 20260507233556 | 54 | 112 | 0.0 | 0.0 | 0.00 | 0.00 | 0.00 | 75 | 1001.5 |
| 20260507233056 | 54 | 112 | 0.0 | 0.0 | 0.00 | 0.00 | 0.00 | 74 | 1001.5 |
| 20260507232556 | 53 | 112 | 0.0 | 0.0 | 0.00 | 0.00 | 0.00 | 74 | 1001.6 |
| 20260507232056 | 53 | 112 | 0.0 | 0.0 | 0.00 | 0.00 | 0.00 | 73 | 1001.7 |
| 20260507231556 | 52 | 112 | 0.0 | 0.0 | 0.00 | 0.00 | 0.00 | 73 | 1001.6 |
| 20260507231056 | 52 | 112 | 0.0 | 0.0 | 0.00 | 0.00 | 0.00 | 73 | 1001.6 |
| 20260507230556 | 51 | 112 | 0.0 | 0.0 | 0.00 | 0.00 | 0.00 | 71 | 1001.6 |
| 20260507230056 | 50 | 112 | 0.0 | 0.0 | 0.00 | 0.00 | 0.00 | 70 | 1001.6 |
| 20260507225556 | 50 | 112 | 0.0 | 0.0 | 0.00 | 0.00 | 0.00 | 70 | 1001.6 |
| 20260507225056 | 50 | 112 | 0.0 | 0.0 | 0.00 | 0.00 | 0.00 | 69 | 1001.6 |
| 20260507224556 | 50 | 112 | 0.0 | 0.0 | 0.00 | 0.00 | 0.00 | 69 | 1001.5 |
| 20260507224056 | 50 | 112 | 0.0 | 0.0 | 0.00 | 0.00 | 0.00 | 69 | 1001.6 |
| 20260507223556 | 51 | 112 | 0.0 | 0.0 | 0.00 | 0.00 | 0.00 | 69 | 1001.6 |
| 20260507223056 | 51 | 112 | 0.0 | 0.0 | 0.00 | 0.00 | 0.00 | 69 | 1001.6 |
| 20260507222556 | 51 | 112 | 0.0 | 0.0 | 0.00 | 0.00 | 0.00 | 70 | 1001.7 |
| 20260507222056 | 51 | 112 | 0.0 | 0.0 | 0.00 | 0.00 | 0.00 | 70 | 1001.7 |
| 20260507221556 | 52 | 112 | 0.0 | 0.0 | 0.00 | 0.00 | 0.00 | 70 | 1001.8 |
| 20260507221056 | 53 | 112 | 0.0 | 0.0 | 0.00 | 0.00 | 0.00 | 70 | 1001.6 |
| 20260507220556 | 53 | 112 | 0.0 | 0.0 | 0.00 | 0.00 | 0.00 | 70 | 1001.5 |
| 20260507220056 | 54 | 112 | 0.0 | 0.0 | 0.00 | 0.00 | 0.00 | 70 | 1001.6 |
| 20260507215556 | 54 | 112 | 0.0 | 0.0 | 0.00 | 0.00 | 0.00 | 70 | 1001.6 |
| 20260507215056 | 55 | 112 | 0.0 | 0.0 | 0.00 | 0.00 | 0.00 | 70 | 1001.5 |
| 20260507214556 | 55 | 112 | 0.0 | 0.0 | 0.00 | 0.00 | 0.00 | 70 | 1001.5 |
| 20260507214056 | 55 | 112 | 0.0 | 0.0 | 0.00 | 0.00 | 0.00 | 70 | 1001.4 |
| 20260507213556 | 55 | 112 | 0.0 | 0.0 | 0.00 | 0.00 | 0.00 | 70 | 1001.5 |
| 20260507213056 | 56 | 112 | 0.0 | 0.0 | 0.00 | 0.00 | 0.00 | 70 | 1001.4 |
| 20260507212556 | 56 | 112 | 0.0 | 0.0 | 0.00 | 0.00 | 0.00 | 70 | 1001.4 |
| 20260507212056 | 56 | 112 | 0.0 | 0.0 | 0.00 | 0.00 | 0.00 | 70 | 1001.3 |
| 20260507211556 | 57 | 112 | 0.0 | 0.0 | 0.00 | 0.00 | 0.00 | 68 | 1001.3 |
| 20260507211056 | 57 | 112 | 0.0 | 0.0 | 0.00 | 0.00 | 0.00 | 68 | 1001.2 |
| 20260507210556 | 57 | 112 | 0.0 | 0.0 | 0.00 | 0.00 | 0.00 | 68 | 1001.2 |
| 20260507210056 | 58 | 112 | 0.0 | 0.0 | 0.00 | 0.00 | 0.00 | 67 | 1001.1 |
| 20260507205556 | 58 | 112 | 0.0 | 0.0 | 0.00 | 0.00 | 0.00 | 67 | 1001.2 |
| 20260507205056 | 58 | 112 | 0.0 | 0.0 | 0.00 | 0.00 | 0.00 | 67 | 1001.3 |
| 20260507204556 | 58 | 112 | 0.0 | 0.0 | 0.00 | 0.00 | 0.00 | 67 | 1001.3 |
| 20260507204056 | 59 | 112 | 0.0 | 0.0 | 0.00 | 0.00 | 0.00 | 67 | 1001.4 |
| 20260507203556 | 59 | 112 | 0.0 | 0.0 | 0.00 | 0.00 | 0.00 | 66 | 1001.4 |
| 20260507203056 | 60 | 112 | 0.0 | 0.0 | 0.00 | 0.00 | 0.00 | 67 | 1001.2 |
| 20260507202556 | 60 | 112 | 0.0 | 4.3 | 0.00 | 0.00 | 0.00 | 67 | 1001.2 |
| 20260507202056 | 60 | 112 | 4.3 | 6.1 | 0.00 | 0.00 | 0.00 | 66 | 1001.2 |
| 20260507201556 | 60 | 112 | 1.7 | 4.3 | 0.00 | 0.00 | 0.00 | 65 | 1001.3 |
| 20260507201056 | 60 | 135 | 0.0 | 0.0 | 0.00 | 0.00 | 0.00 | 63 | 1001.4 |
| 20260507200556 | 60 | 135 | 0.0 | 0.0 | 0.00 | 0.00 | 0.00 | 62 | 1001.3 |
| 20260507200056 | 60 | 135 | 0.0 | 0.0 | 0.00 | 0.00 | 0.00 | 62 | 1001.3 |
| 20260507195556 | 60 | 135 | 0.0 | 0.0 | 0.00 | 0.00 | 0.00 | 61 | 1001.4 |
| 20260507195056 | 60 | 135 | 0.0 | 0.0 | 0.00 | 0.00 | 0.00 | 61 | 1001.5 |
| 20260507194556 | 61 | 135 | 0.0 | 0.0 | 0.00 | 0.00 | 0.00 | 61 | 1001.5 |
| 20260507194056 | 61 | 135 | 0.0 | 0.0 | 0.00 | 0.00 | 0.00 | 60 | 1001.4 |
| 20260507193556 | 62 | 135 | 0.0 | 0.0 | 0.00 | 0.00 | 0.00 | 60 | 1001.3 |
| 20260507193056 | 63 | 135 | 0.0 | 0.0 | 0.00 | 0.00 | 0.00 | 59 | 1001.3 |
| 20260507192556 | 63 | 135 | 0.0 | 0.0 | 0.00 | 0.00 | 0.00 | 58 | 1001.4 |
| 20260507192056 | 64 | 135 | 0.0 | 3.5 | 0.00 | 0.00 | 0.00 | 57 | 1001.5 |
| 20260507191556 | 64 | 135 | 0.0 | 3.5 | 0.00 | 0.00 | 0.00 | 58 | 1001.5 |
| 20260507191056 | 64 | 112 | 2.6 | 5.2 | 0.00 | 0.00 | 0.00 | 58 | 1001.4 |
| 20260507190556 | 64 | 112 | 4.3 | 5.2 | 0.00 | 0.00 | 0.00 | 59 | 1001.2 |
| 20260507190056 | 63 | 135 | 1.7 | 3.5 | 0.00 | 0.00 | 0.00 | 59 | 1001.4 |
| 20260507185556 | 63 | 112 | 0.9 | 3.5 | 0.00 | 0.00 | 0.00 | 59 | 1001.3 |
| 20260507185056 | 63 | 135 | 3.5 | 3.5 | 0.00 | 0.00 | 0.00 | 58 | 1001.2 |
| 20260507184556 | 63 | 135 | 1.7 | 1.7 | 0.00 | 0.00 | 0.00 | 57 | 1001.2 |
| 20260507184056 | 64 | 135 | 0.0 | 0.0 | 0.00 | 0.00 | 0.00 | 56 | 1001.2 |
| 20260507183556 | 64 | 135 | 0.0 | 0.0 | 0.00 | 0.00 | 0.00 | 55 | 1001.2 |
| 20260507183056 | 65 | 135 | 0.0 | 0.0 | 0.00 | 0.00 | 0.00 | 53 | 1001.2 |
| 20260507182556 | 66 | 135 | 0.0 | 0.0 | 0.00 | 0.00 | 0.00 | 52 | 1001.1 |
| 20260507182056 | 67 | 135 | 0.0 | 0.0 | 0.00 | 0.00 | 0.00 | 51 | 1001.1 |
| 20260507181556 | 67 | 135 | 0.0 | 0.0 | 0.00 | 0.00 | 0.00 | 50 | 1001.2 |
| 20260507181056 | 67 | 135 | 0.0 | 0.0 | 0.00 | 0.00 | 0.00 | 50 | 1001.2 |
| 20260507180558 | 68 | 135 | 0.0 | 0.0 | 0.00 | 0.00 | 0.00 | 49 | 1001.0 |
| 20260507180056 | 68 | 135 | 0.0 | 0.0 | 0.00 | 0.00 | 0.00 | 49 | 1000.9 |
| 20260507175557 | 68 | 135 | 0.0 | 0.0 | 0.00 | 0.00 | 0.00 | 48 | 1001.1 |
| 20260507175057 | 69 | 135 | 0.0 | 4.3 | 0.00 | 0.00 | 0.00 | 48 | 1001.0 |
| 20260507174556 | 69 | 112 | 0.9 | 4.3 | 0.00 | 0.00 | 0.00 | 48 | 1000.8 |
| 20260507174056 | 70 | 135 | 4.3 | 4.3 | 0.00 | 0.00 | 0.00 | 48 | 1000.7 |
| 20260507173557 | 70 | 135 | 3.5 | 7.8 | 0.00 | 0.00 | 0.00 | 47 | 1000.6 |
| 20260507173057 | 70 | 112 | 9.6 | 9.6 | 0.00 | 0.00 | 0.00 | 47 | 1000.4 |
| 20260507172557 | 70 | 135 | 3.5 | 11.3 | 0.00 | 0.00 | 0.00 | 47 | 1000.4 |
| 20260507172057 | 71 | 112 | 7.0 | 10.4 | 0.00 | 0.00 | 0.00 | 47 | 1000.4 |
| 20260507171557 | 71 | 135 | 5.2 | 9.6 | 0.00 | 0.00 | 0.00 | 46 | 1000.2 |
| 20260507171057 | 71 | 135 | 7.0 | 13.9 | 0.00 | 0.00 | 0.00 | 46 | 1000.1 |
| 20260507170557 | 71 | 112 | 6.1 | 8.7 | 0.00 | 0.00 | 0.00 | 46 | 1000.1 |
| 20260507170057 | 72 | 135 | 7.0 | 8.7 | 0.00 | 0.00 | 0.00 | 46 | 1000.1 |
| 20260507165557 | 72 | 135 | 7.0 | 10.4 | 0.00 | 0.00 | 0.00 | 45 | 1000.1 |
| 20260507165057 | 72 | 135 | 7.8 | 11.3 | 0.00 | 0.00 | 0.00 | 45 | 1000.0 |
| 20260507164557 | 73 | 112 | 8.7 | 12.2 | 0.00 | 0.00 | 0.00 | 44 | 1000.0 |
| 20260507164057 | 73 | 135 | 12.2 | 12.2 | 0.00 | 0.00 | 0.00 | 44 | 999.9 |
| 20260507163557 | 74 | 135 | 8.7 | 15.6 | 0.00 | 0.00 | 0.00 | 43 | 999.8 |
| 20260507163057 | 75 | 135 | 5.2 | 14.8 | 0.00 | 0.00 | 0.00 | 42 | 1000.0 |
| 20260507162557 | 76 | 135 | 7.0 | 17.4 | 0.00 | 0.00 | 0.00 | 41 | 999.8 |
| 20260507162057 | 77 | 157 | 14.8 | 15.6 | 0.00 | 0.00 | 0.00 | 39 | 999.8 |
| 20260507161557 | 78 | 135 | 10.4 | 13.0 | 0.00 | 0.00 | 0.00 | 39 | 999.9 |
| 20260507161057 | 80 | 135 | 7.0 | 12.2 | 0.00 | 0.00 | 0.00 | 38 | 999.8 |
| 20260507160557 | 81 | 112 | 7.0 | 8.7 | 0.00 | 0.00 | 0.00 | 38 | 999.8 |
| 20260507160057 | 81 | 135 | 6.1 | 10.4 | 0.00 | 0.00 | 0.00 | 37 | 999.7 |
| 20260507155557 | 81 | 135 | 9.6 | 9.6 | 0.00 | 0.00 | 0.00 | 37 | 999.9 |
| 20260507155057 | 81 | 135 | 7.0 | 10.4 | 0.00 | 0.00 | 0.00 | 37 | 999.9 |
| 20260507154557 | 80 | 112 | 8.7 | 11.3 | 0.00 | 0.00 | 0.00 | 37 | 999.8 |
| 20260507154057 | 79 | 67 | 7.8 | 15.6 | 0.00 | 0.00 | 0.00 | 38 | 999.8 |
| 20260507153557 | 78 | 112 | 12.2 | 14.8 | 0.00 | 0.00 | 0.00 | 38 | 999.8 |
| 20260507153057 | 78 | 112 | 8.7 | 12.2 | 0.00 | 0.00 | 0.00 | 37 | 999.8 |
| 20260507152557 | 78 | 112 | 8.7 | 13.0 | 0.00 | 0.00 | 0.00 | 38 | 999.8 |
| 20260507152057 | 78 | 135 | 7.0 | 12.2 | 0.00 | 0.00 | 0.00 | 38 | 999.8 |
| 20260507151557 | 77 | 112 | 7.8 | 12.2 | 0.00 | 0.00 | 0.00 | 38 | 999.8 |
| 20260507151057 | 78 | 90 | 8.7 | 14.8 | 0.00 | 0.00 | 0.00 | 37 | 999.8 |
| 20260507150557 | 79 | 135 | 11.3 | 12.2 | 0.00 | 0.00 | 0.00 | 36 | 999.8 |
| 20260507150057 | 80 | 135 | 8.7 | 13.9 | 0.00 | 0.00 | 0.00 | 35 | 999.8 |
| 20260507145557 | 82 | 112 | 9.6 | 19.1 | 0.00 | 0.00 | 0.00 | 34 | 999.8 |
| 20260507145057 | 82 | 112 | 7.0 | 13.9 | 0.00 | 0.00 | 0.00 | 34 | 999.8 |
| 20260507144557 | 82 | 112 | 13.9 | 15.6 | 0.00 | 0.00 | 0.00 | 34 | 999.8 |
| 20260507144057 | 83 | 112 | 8.7 | 15.6 | 0.00 | 0.00 | 0.00 | 33 | 999.9 |
| 20260507143557 | 83 | 112 | 10.4 | 17.4 | 0.00 | 0.00 | 0.00 | 33 | 999.8 |
| 20260507143057 | 83 | 135 | 7.8 | 13.9 | 0.00 | 0.00 | 0.00 | 33 | 999.9 |
| 20260507142557 | 83 | 135 | 12.2 | 18.2 | 0.00 | 0.00 | 0.00 | 33 | 999.9 |
| 20260507142057 | 83 | 135 | 6.1 | 14.8 | 0.00 | 0.00 | 0.00 | 32 | 999.7 |
| 20260507141557 | 83 | 135 | 13.9 | 19.1 | 0.00 | 0.00 | 0.00 | 32 | 999.7 |
| 20260507141057 | 84 | 112 | 19.1 | 19.1 | 0.00 | 0.00 | 0.00 | 33 | 999.6 |
| 20260507140557 | 84 | 90 | 9.6 | 18.2 | 0.00 | 0.00 | 0.00 | 33 | 999.7 |
| 20260507140057 | 85 | 135 | 10.4 | 16.5 | 0.00 | 0.00 | 0.00 | 33 | 999.7 |
| 20260507135557 | 85 | 112 | 8.7 | 20.9 | 0.00 | 0.00 | 0.00 | 32 | 999.7 |
| 20260507135057 | 86 | 135 | 18.2 | 18.2 | 0.00 | 0.00 | 0.00 | 32 | 999.7 |
| 20260507134557 | 86 | 112 | 8.7 | 19.1 | 0.00 | 0.00 | 0.00 | 32 | 1000.0 |
| 20260507134057 | 85 | 90 | 11.3 | 14.8 | 0.00 | 0.00 | 0.00 | 33 | 999.7 |
| 20260507133557 | 84 | 135 | 10.4 | 13.9 | 0.00 | 0.00 | 0.00 | 33 | 999.9 |
| 20260507133057 | 83 | 135 | 7.8 | 15.6 | 0.00 | 0.00 | 0.00 | 33 | 1000.0 |
| 20260507132557 | 84 | 112 | 13.0 | 13.9 | 0.00 | 0.00 | 0.00 | 33 | 1000.0 |
| 20260507132057 | 85 | 112 | 12.2 | 15.6 | 0.00 | 0.00 | 0.00 | 32 | 1000.0 |
| 20260507131557 | 87 | 112 | 8.7 | 14.8 | 0.00 | 0.00 | 0.00 | 32 | 1000.0 |
| 20260507131057 | 87 | 90 | 12.2 | 14.8 | 0.00 | 0.00 | 0.00 | 31 | 1000.0 |
| 20260507130557 | 86 | 112 | 9.6 | 14.8 | 0.00 | 0.00 | 0.00 | 32 | 1000.0 |
| 20260507130057 | 86 | 112 | 5.2 | 14.8 | 0.00 | 0.00 | 0.00 | 32 | 999.9 |
| 20260507125557 | 86 | 135 | 11.3 | 17.4 | 0.00 | 0.00 | 0.00 | 32 | 1000.0 |
| 20260507125057 | 87 | 90 | 10.4 | 19.1 | 0.00 | 0.00 | 0.00 | 31 | 1000.1 |
| 20260507124557 | 87 | 135 | 9.6 | 16.5 | 0.00 | 0.00 | 0.00 | 32 | 1000.3 |
| 20260507124057 | 87 | 135 | 7.0 | 13.9 | 0.00 | 0.00 | 0.00 | 30 | 1000.2 |
| 20260507123557 | 86 | 90 | 7.0 | 15.6 | 0.00 | 0.00 | 0.00 | 32 | 1000.4 |
| 20260507123057 | 86 | 112 | 12.2 | 14.8 | 0.00 | 0.00 | 0.00 | 31 | 1000.4 |
| 20260507122557 | 86 | 90 | 10.4 | 15.6 | 0.00 | 0.00 | 0.00 | 32 | 1000.6 |
| 20260507122057 | 86 | 112 | 10.4 | 14.8 | 0.00 | 0.00 | 0.00 | 33 | 1000.7 |
| 20260507121557 | 86 | 90 | 9.6 | 16.5 | 0.00 | 0.00 | 0.00 | 33 | 1000.7 |
| 20260507121057 | 86 | 90 | 15.6 | 15.6 | 0.00 | 0.00 | 0.00 | 33 | 1000.7 |
| 20260507120557 | 86 | 135 | 10.4 | 15.6 | 0.00 | 0.00 | 0.00 | 33 | 1000.7 |
| 20260507120057 | 86 | 112 | 11.3 | 15.6 | 0.00 | 0.00 | 0.00 | 33 | 1000.9 |
| 20260507115557 | 86 | 135 | 12.2 | 15.6 | 0.00 | 0.00 | 0.00 | 34 | 1000.9 |
| 20260507115057 | 86 | 90 | 10.4 | 13.9 | 0.00 | 0.00 | 0.00 | 34 | 1000.8 |
| 20260507114557 | 86 | 112 | 10.4 | 14.8 | 0.00 | 0.00 | 0.00 | 34 | 1000.9 |
| 20260507114057 | 86 | 90 | 8.7 | 15.6 | 0.00 | 0.00 | 0.00 | 34 | 1001.0 |
| 20260507113557 | 85 | 112 | 8.7 | 14.8 | 0.00 | 0.00 | 0.00 | 34 | 1000.9 |
| 20260507113057 | 86 | 90 | 8.7 | 13.9 | 0.00 | 0.00 | 0.00 | 34 | 1001.0 |
| 20260507112557 | 86 | 135 | 13.0 | 13.9 | 0.00 | 0.00 | 0.00 | 34 | 1001.0 |
| 20260507112057 | 86 | 112 | 7.0 | 16.5 | 0.00 | 0.00 | 0.00 | 35 | 1001.1 |
| 20260507111557 | 85 | 135 | 7.8 | 13.0 | 0.00 | 0.00 | 0.00 | 35 | 1001.1 |
| 20260507111057 | 84 | 112 | 5.2 | 13.0 | 0.00 | 0.00 | 0.00 | 35 | 1001.1 |
| 20260507110557 | 85 | 112 | 9.6 | 15.6 | 0.00 | 0.00 | 0.00 | 35 | 1001.2 |
| 20260507110057 | 86 | 112 | 10.4 | 10.4 | 0.00 | 0.00 | 0.00 | 35 | 1001.2 |
| 20260507105557 | 86 | 90 | 4.3 | 14.8 | 0.00 | 0.00 | 0.00 | 33 | 1001.3 |
| 20260507105057 | 86 | 112 | 11.3 | 13.9 | 0.00 | 0.00 | 0.00 | 34 | 1001.3 |
| 20260507104557 | 86 | 135 | 7.0 | 10.4 | 0.00 | 0.00 | 0.00 | 35 | 1001.3 |
| 20260507104057 | 86 | 112 | 3.5 | 10.4 | 0.00 | 0.00 | 0.00 | 35 | 1001.6 |
| 20260507103557 | 85 | 112 | 11.3 | 12.2 | 0.00 | 0.00 | 0.00 | 36 | 1001.4 |
| 20260507103057 | 85 | 135 | 9.6 | 11.3 | 0.00 | 0.00 | 0.00 | 36 | 1001.5 |
| 20260507102557 | 85 | 135 | 4.3 | 13.9 | 0.00 | 0.00 | 0.00 | 34 | 1001.7 |
| 20260507102057 | 86 | 112 | 8.7 | 10.4 | 0.00 | 0.00 | 0.00 | 35 | 1001.7 |
| 20260507101557 | 85 | 135 | 7.8 | 14.8 | 0.00 | 0.00 | 0.00 | 35 | 1001.5 |
| 20260507101057 | 86 | 112 | 9.6 | 14.8 | 0.00 | 0.00 | 0.00 | 36 | 1001.7 |
| 20260507100557 | 86 | 135 | 3.5 | 13.0 | 0.00 | 0.00 | 0.00 | 36 | 1001.8 |
| 20260507100057 | 86 | 112 | 6.1 | 12.2 | 0.00 | 0.00 | 0.00 | 36 | 1001.7 |
| 20260507095557 | 85 | 112 | 7.0 | 10.4 | 0.00 | 0.00 | 0.00 | 37 | 1001.8 |
| 20260507095057 | 85 | 112 | 7.8 | 8.7 | 0.00 | 0.00 | 0.00 | 37 | 1001.8 |
| 20260507094557 | 84 | 112 | 7.8 | 9.6 | 0.00 | 0.00 | 0.00 | 37 | 1001.9 |
| 20260507094057 | 85 | 90 | 4.3 | 10.4 | 0.00 | 0.00 | 0.00 | 36 | 1001.8 |
| 20260507093557 | 85 | 112 | 3.5 | 7.8 | 0.00 | 0.00 | 0.00 | 37 | 1001.9 |
| 20260507093057 | 85 | 112 | 7.0 | 10.4 | 0.00 | 0.00 | 0.00 | 37 | 1001.9 |
| 20260507092557 | 85 | 135 | 7.0 | 10.4 | 0.00 | 0.00 | 0.00 | 37 | 1001.9 |
| 20260507092057 | 85 | 112 | 4.3 | 9.6 | 0.00 | 0.00 | 0.00 | 37 | 1002.0 |
| 20260507091557 | 86 | 112 | 5.2 | 8.7 | 0.00 | 0.00 | 0.00 | 37 | 1002.0 |
| 20260507091057 | 86 | 135 | 0.0 | 7.8 | 0.00 | 0.00 | 0.00 | 37 | 1002.1 |
| 20260507090557 | 85 | 157 | 0.0 | 7.0 | 0.00 | 0.00 | 0.00 | 37 | 1002.2 |
| 20260507090057 | 84 | 112 | 4.3 | 6.1 | 0.00 | 0.00 | 0.00 | 39 | 1002.2 |
| 20260507085557 | 83 | 157 | 3.5 | 7.0 | 0.00 | 0.00 | 0.00 | 39 | 1002.2 |
| 20260507085057 | 84 | 135 | 0.0 | 10.4 | 0.00 | 0.00 | 0.00 | 39 | 1002.2 |
| 20260507084557 | 84 | 112 | 5.2 | 6.1 | 0.00 | 0.00 | 0.00 | 39 | 1002.2 |
| 20260507084057 | 84 | 67 | 0.0 | 7.0 | 0.00 | 0.00 | 0.00 | 38 | 1002.2 |
| 20260507083557 | 84 | 112 | 0.0 | 4.3 | 0.00 | 0.00 | 0.00 | 38 | 1002.2 |
| 20260507083057 | 84 | 157 | 0.0 | 6.1 | 0.00 | 0.00 | 0.00 | 38 | 1002.1 |
| 20260507082557 | 84 | 112 | 5.2 | 5.2 | 0.00 | 0.00 | 0.00 | 39 | 1002.2 |
| 20260507082057 | 83 | 135 | 2.6 | 5.2 | 0.00 | 0.00 | 0.00 | 40 | 1002.2 |
| 20260507081557 | 82 | 67 | 0.0 | 4.3 | 0.00 | 0.00 | 0.00 | 41 | 1002.2 |
| 20260507081057 | 81 | 112 | 2.6 | 7.8 | 0.00 | 0.00 | 0.00 | 42 | 1002.1 |
| 20260507080557 | 79 | 112 | 0.0 | 4.3 | 0.00 | 0.00 | 0.00 | 44 | 1002.1 |
| 20260507080057 | 77 | 112 | 1.7 | 5.2 | 0.00 | 0.00 | 0.00 | 45 | 1002.1 |
| 20260507075557 | 76 | 135 | 0.0 | 3.5 | 0.00 | 0.00 | 0.00 | 46 | 1002.1 |